Rolla, ND

8:06 PM CST on February 06, 2016 (GMT -0600)
Rolla

Weather History for K06D - May, 2014

Change the Weather History Date:

Monday, May 26, 2014

  Actual Average (KRUG) Record (KRUG)
Temperature  
Mean Temperature 58 °F -  
Max Temperature 71 °F 72 °F 92 °F (1969)
Min Temperature 46 °F 47 °F 32 °F (1961)
Degree Days  
Heating Degree Days 6    
Growing Degree Days 8 (Base 50)    
Moisture  
Dew Point 51 °F    
Average Humidity 78    
Maximum Humidity 100    
Minimum Humidity 50    
Precipitation  
Precipitation 0.00 in - - ()
Sea Level Pressure  
Sea Level Pressure 29.99 in    
Wind  
Wind Speed 9 mph (ENE)    
Max Wind Speed 23 mph    
Max Gust Speed 31 mph    
Visibility 10 miles    
Events Thunderstorm    
Averages and records for this station are not official NWS values.
T = Trace of Precipitation, MM = Missing Value Source: NWS Daily Summary

Daily Weather History Graph

Daily Weather History Graph

Search for Another Location

Airport or City:

Trip Planner

Search our weather history database for the weather conditions in past years. The results will help you decide how hot, cold, wet, or windy it might be!

Date:

Astronomy

May. 26, 2014 Rise Set
Actual Time 5:44 AM CDT 9:27 PM CDT
Civil Twilight 5:04 AM CDT 10:07 PM CDT
Nautical Twilight 4:09 AM CDT 11:02 PM CDT
Astronomical Twilight 2:50 AM CDT 12:23 AM CDT
Moon 4:40 AM CDT (5/26) 7:21 PM CDT (5/26)
Length of Visible Light 17h 03m
Length of Day
15h 43m
Waning Crescent, 5% of the Moon is Illuminated
May 26
Waning Crescent
May 28
New
Jun 5
First Quarter
Jun 12
Full
Jun 19
Last Quarter

Hourly Weather History & Observations

Time (CDT) Temp. Windchill Dew Point Humidity Pressure Visibility Wind Dir Wind Speed Gust Speed Precip Events Conditions
12:15 AM 53.6 °F - 53.6 °F 100% 29.98 in 10.0 mi NNE 10.4 mph - N/A   Scattered Clouds
12:35 AM 53.6 °F - 51.8 °F 94% 29.98 in 10.0 mi NNE 11.5 mph - N/A   Mostly Cloudy
12:55 AM 51.8 °F - 51.8 °F 100% 29.98 in 10.0 mi NNE 12.7 mph - N/A   Mostly Cloudy
1:15 AM 50.0 °F - 50.0 °F 100% 29.99 in 10.0 mi NNE 11.5 mph - N/A   Overcast
1:35 AM 50.0 °F - 50.0 °F 100% 29.99 in 10.0 mi NNE 8.1 mph - N/A   Overcast
1:55 AM 50.0 °F - 50.0 °F 100% 29.99 in 10.0 mi North 5.8 mph - N/A   Overcast
2:15 AM 48.2 °F - 48.2 °F 100% 30.00 in 10.0 mi North 4.6 mph - N/A   Mostly Cloudy
2:35 AM 48.2 °F - 48.2 °F 100% 30.00 in 10.0 mi North 6.9 mph - N/A   Scattered Clouds
2:55 AM 48.2 °F - 48.2 °F 100% 29.99 in 10.0 mi North 5.8 mph - N/A   Scattered Clouds
3:15 AM 48.2 °F - 48.2 °F 100% 29.99 in 10.0 mi North 6.9 mph - N/A   Partly Cloudy
3:35 AM 48.2 °F - 48.2 °F 100% 30.00 in 10.0 mi North 6.9 mph - N/A   Partly Cloudy
3:55 AM 48.2 °F - 48.2 °F 100% 30.01 in 10.0 mi North 6.9 mph - N/A   Scattered Clouds
4:15 AM 48.2 °F - 48.2 °F 100% 30.01 in 10.0 mi North 9.2 mph - N/A   Mostly Cloudy
4:35 AM 48.2 °F - 48.2 °F 100% 30.01 in 10.0 mi NNW 9.2 mph - N/A   Overcast
4:55 AM 46.4 °F 42.4 °F 46.4 °F 100% 30.02 in 10.0 mi North 8.1 mph - N/A   Overcast
5:15 AM 48.2 °F - 48.2 °F 100% 30.02 in 10.0 mi North 8.1 mph - N/A   Mostly Cloudy
5:35 AM 46.4 °F 42.9 °F 46.4 °F 100% 30.02 in 10.0 mi NNW 6.9 mph - N/A   Clear
5:55 AM 46.4 °F 41.9 °F 46.4 °F 100% 30.03 in 10.0 mi NNW 9.2 mph - N/A   Clear
6:15 AM 46.4 °F 42.4 °F 46.4 °F 100% 30.04 in 10.0 mi NNW 8.1 mph - N/A   Clear
6:35 AM 48.2 °F - 48.2 °F 100% 30.04 in 10.0 mi North 9.2 mph - N/A   Clear
6:55 AM 48.2 °F - 48.2 °F 100% 30.04 in 10.0 mi North 8.1 mph - N/A   Clear
7:15 AM 50.0 °F - 50.0 °F 100% 30.04 in 10.0 mi North 8.1 mph - N/A   Clear
7:35 AM 50.0 °F - 50.0 °F 100% 30.04 in 10.0 mi NNE 9.2 mph - N/A   Clear
7:55 AM 51.8 °F - 51.8 °F 100% 30.04 in 10.0 mi NNE 9.2 mph - N/A   Clear
8:15 AM 53.6 °F - 53.6 °F 100% 30.04 in 10.0 mi NNE 11.5 mph - N/A   Clear
8:35 AM 53.6 °F - 53.6 °F 100% 30.04 in 10.0 mi NNE 12.7 mph - N/A   Clear
8:55 AM 53.6 °F - 53.6 °F 100% 30.04 in 10.0 mi NNE 12.7 mph - N/A   Clear
9:15 AM 55.4 °F - 55.4 °F 100% 30.03 in 10.0 mi NNE 10.4 mph - N/A   Clear
9:35 AM 55.4 °F - 53.6 °F 94% 30.04 in 10.0 mi ENE 10.4 mph - N/A   Clear
10:15 AM 57.2 °F - 53.6 °F 88% 30.03 in 10.0 mi ENE 10.4 mph - N/A   Clear
10:35 AM 59.0 °F - 53.6 °F 82% 30.02 in 10.0 mi East 10.4 mph - N/A   Clear
10:55 AM 59.0 °F - 51.8 °F 77% 30.02 in 10.0 mi East 10.4 mph - N/A   Clear
11:15 AM 60.8 °F - 53.6 °F 77% 30.02 in 10.0 mi East 11.5 mph - N/A   Clear
11:35 AM 62.6 °F - 51.8 °F 68% 30.02 in 10.0 mi ENE 10.4 mph 16.1 mph N/A   Clear
11:55 AM 62.6 °F - 50.0 °F 63% 30.02 in 10.0 mi ENE 8.1 mph - N/A   Clear
12:15 PM 62.6 °F - 51.8 °F 68% 30.03 in 10.0 mi East 9.2 mph - N/A   Clear
12:35 PM 64.4 °F - 50.0 °F 59% 30.02 in 10.0 mi East 9.2 mph - N/A   Clear
1:15 PM 66.2 °F - 48.2 °F 52% 30.01 in 10.0 mi ESE 9.2 mph 16.1 mph N/A   Clear
1:35 PM 66.2 °F - 50.0 °F 56% 30.01 in 10.0 mi ESE 11.5 mph - N/A   Clear
1:55 PM 68.0 °F - 51.8 °F 56% 30.00 in 10.0 mi SE 11.5 mph - N/A   Clear
2:15 PM 68.0 °F - 50.0 °F 52% 30.00 in 10.0 mi SE 5.8 mph - N/A   Clear
2:35 PM 68.0 °F - 50.0 °F 52% 29.99 in 3.0 mi SSE 11.5 mph - N/A   Haze
2:55 PM 68.0 °F - 51.8 °F 56% 29.98 in 10.0 mi SE 6.9 mph - N/A   Clear
3:15 PM 69.8 °F - 51.8 °F 53% 29.98 in 10.0 mi SE 6.9 mph - N/A   Clear
3:35 PM 69.8 °F - 51.8 °F 53% 29.97 in 10.0 mi South 9.2 mph - N/A   Clear
4:15 PM 69.8 °F - 51.8 °F 53% 29.97 in 10.0 mi SE 6.9 mph - N/A   Clear
4:35 PM 71.6 °F - 51.8 °F 50% 29.96 in 10.0 mi SSE 6.9 mph - N/A   Clear
4:55 PM 71.6 °F - 53.6 °F 53% 29.95 in 10.0 mi SSE 10.4 mph - N/A   Clear
5:15 PM 71.6 °F - 53.6 °F 53% 29.94 in 10.0 mi SSE 9.2 mph - N/A   Clear
5:35 PM 71.6 °F - 53.6 °F 53% 29.94 in 5.0 mi SSE 6.9 mph 16.1 mph N/A   Haze
5:55 PM 71.6 °F - 53.6 °F 53% 29.94 in 10.0 mi SE 12.7 mph - N/A   Clear
6:15 PM 71.6 °F - 53.6 °F 53% 29.94 in 10.0 mi ESE 9.2 mph - N/A   Clear
6:35 PM 71.6 °F - 53.6 °F 53% 29.94 in 10.0 mi SSE 6.9 mph - N/A   Clear
6:55 PM 71.6 °F - 53.6 °F 53% 29.94 in 10.0 mi SSE 8.1 mph - N/A   Clear
7:15 PM 69.8 °F - 53.6 °F 56% 29.94 in 10.0 mi SSE 9.2 mph - N/A   Clear
7:35 PM 71.6 °F - 53.6 °F 53% 29.94 in 10.0 mi SE 10.4 mph - N/A   Clear
7:55 PM 68.0 °F - 53.6 °F 60% 29.94 in 10.0 mi SE 9.2 mph - N/A   Clear
8:15 PM 68.0 °F - 53.6 °F 60% 29.95 in 10.0 mi SE 8.1 mph - N/A   Clear
8:35 PM 68.0 °F - 53.6 °F 60% 29.95 in 10.0 mi SE 8.1 mph - N/A   Mostly Cloudy
8:55 PM 66.2 °F - 53.6 °F 64% 29.94 in 10.0 mi ESE 9.2 mph - N/A   Overcast
9:15 PM 66.2 °F - 51.8 °F 60% 29.94 in 10.0 mi SE 9.2 mph - N/A   Scattered Clouds
9:55 PM 64.4 °F - 53.6 °F 68% 29.96 in 10.0 mi ESE 10.4 mph - N/A   Mostly Cloudy
10:15 PM 64.4 °F - 53.6 °F 68% 29.95 in 10.0 mi SE 10.4 mph - N/A   Overcast
10:35 PM 64.4 °F - 51.8 °F 64% 29.96 in 10.0 mi ESE 11.5 mph - N/A   Overcast
10:55 PM 62.6 °F - 53.6 °F 72% 29.97 in 10.0 mi East 10.4 mph - N/A   Overcast
11:15 PM 60.8 °F - 53.6 °F 77% 29.97 in 10.0 mi East 9.2 mph - N/A Thunderstorm Overcast
11:35 PM 59.0 °F - 53.6 °F 82% 29.98 in 10.0 mi ENE 10.4 mph - N/A Thunderstorm Thunderstorm
11:55 PM 59.0 °F - 53.6 °F 82% 30.04 in 10.0 mi NW 23.0 mph 31.1 mph N/A Thunderstorm Overcast